| time (UTC) | temp C | wind direction | speed KPH | gust KPH | rain 1hr cm | rain 24hr cm | rain mn cm | humidity % | barometer mb |
| 20260508030051 | 10 | 28 | 0.0 | 3.2 | 0.00 | 0.13 | 0.00 | 79 | 1015.5 |
| 20260508024546 | 10 | 28 | 0.0 | 0.0 | 0.00 | 0.13 | 0.00 | 79 | 1015.6 |
| 20260508023040 | 10 | 28 | 0.0 | 1.6 | 0.00 | 0.13 | 0.00 | 78 | 1015.5 |
| 20260508021544 | 10 | 28 | 0.0 | 0.0 | 0.00 | 0.13 | 0.00 | 77 | 1015.5 |
| 20260508020039 | 10 | 28 | 0.0 | 1.6 | 0.00 | 0.13 | 0.00 | 77 | 1015.5 |
| 20260508014554 | 10 | 28 | 0.0 | 0.0 | 0.00 | 0.13 | 0.00 | 76 | 1015.4 |
| 20260508013049 | 10 | 28 | 0.0 | 0.0 | 0.00 | 0.13 | 0.00 | 76 | 1015.5 |
| 20260508011548 | 10 | 28 | 0.0 | 1.6 | 0.00 | 0.13 | 0.00 | 76 | 1015.5 |
| 20260508010048 | 10 | 28 | 0.0 | 1.6 | 0.00 | 0.13 | 0.00 | 75 | 1015.5 |
| 20260508004542 | 10 | 28 | 0.0 | 1.6 | 0.00 | 0.13 | 0.00 | 75 | 1015.5 |
| 20260508003055 | 10 | 28 | 0.0 | 1.6 | 0.00 | 0.13 | 0.00 | 75 | 1015.6 |
| 20260508001542 | 10 | 28 | 0.0 | 1.6 | 0.00 | 0.13 | 0.00 | 75 | 1015.6 |
| 20260508000043 | 10 | 28 | 0.0 | 3.2 | 0.00 | 0.13 | 0.00 | 76 | 1015.6 |
| 20260507234553 | 10 | 28 | 0.0 | 1.6 | 0.00 | 0.13 | 0.00 | 77 | 1015.8 |
| 20260507233051 | 10 | 28 | 0.0 | 1.6 | 0.00 | 0.13 | 0.00 | 79 | 1015.7 |
| 20260507231548 | 10 | 28 | 0.0 | 0.0 | 0.00 | 0.13 | 0.00 | 80 | 1015.7 |
| 20260507230047 | 10 | 28 | 0.0 | 1.6 | 0.00 | 0.13 | 0.00 | 81 | 1015.8 |
| 20260507224552 | 11 | 28 | 0.0 | 0.0 | 0.00 | 0.13 | 0.13 | 81 | 1015.8 |
| 20260507223035 | 11 | 28 | 0.0 | 0.0 | 0.00 | 0.13 | 0.13 | 81 | 1015.8 |
| 20260507221535 | 11 | 28 | 0.0 | 0.0 | 0.00 | 0.13 | 0.13 | 81 | 1015.8 |
| 20260507220035 | 11 | 28 | 0.0 | 0.0 | 0.00 | 0.13 | 0.13 | 81 | 1015.8 |
| 20260507214551 | 11 | 28 | 0.0 | 0.0 | 0.00 | 0.13 | 0.13 | 82 | 1015.9 |
| 20260507213048 | 11 | 28 | 0.0 | 0.0 | 0.00 | 0.13 | 0.13 | 81 | 1015.8 |
| 20260507211601 | 11 | 28 | 0.0 | 0.0 | 0.00 | 0.13 | 0.13 | 80 | 1015.7 |
| 20260507210047 | 11 | 28 | 0.0 | 0.0 | 0.00 | 0.13 | 0.13 | 80 | 1015.6 |
| 20260507204540 | 11 | 28 | 0.0 | 1.6 | 0.00 | 0.13 | 0.13 | 80 | 1015.5 |
| 20260507203041 | 11 | 28 | 0.0 | 1.6 | 0.00 | 0.13 | 0.13 | 80 | 1015.4 |
| 20260507201538 | 11 | 28 | 0.0 | 1.6 | 0.00 | 0.13 | 0.13 | 80 | 1015.3 |
| 20260507200038 | 12 | 28 | 0.0 | 0.0 | 0.00 | 0.13 | 0.13 | 80 | 1015.2 |
| 20260507194555 | 12 | 28 | 0.0 | 0.0 | 0.00 | 0.13 | 0.13 | 79 | 1015.1 |
| 20260507193049 | 12 | 28 | 0.0 | 1.6 | 0.00 | 0.13 | 0.13 | 79 | 1015.0 |
| 20260507191551 | 12 | 28 | 0.0 | 3.2 | 0.00 | 0.13 | 0.13 | 79 | 1014.9 |
| 20260507190048 | 12 | 28 | 1.6 | 3.2 | 0.00 | 0.13 | 0.13 | 79 | 1014.9 |
| 20260507184541 | 12 | 28 | 0.0 | 0.0 | 0.00 | 0.13 | 0.13 | 78 | 1014.9 |
| 20260507183040 | 12 | 28 | 0.0 | 6.4 | 0.00 | 0.13 | 0.13 | 77 | 1014.9 |
| 20260507181539 | 12 | 28 | 0.0 | 6.4 | 0.00 | 0.13 | 0.13 | 76 | 1014.8 |
| 20260507180045 | 12 | 28 | 0.0 | 6.4 | 0.00 | 0.13 | 0.13 | 76 | 1014.7 |
| 20260507174556 | 12 | 28 | 3.2 | 8.0 | 0.00 | 0.13 | 0.13 | 77 | 1014.7 |
| 20260507173055 | 12 | 29 | 1.6 | 8.0 | 0.00 | 0.13 | 0.13 | 79 | 1014.7 |
| 20260507171555 | 12 | 29 | 1.6 | 8.0 | 0.05 | 0.13 | 0.13 | 79 | 1014.7 |
| 20260507170050 | 12 | 29 | 1.6 | 8.0 | 0.13 | 0.13 | 0.13 | 80 | 1014.7 |
| 20260507164551 | 12 | 29 | 3.2 | 8.0 | 0.13 | 0.13 | 0.13 | 80 | 1014.7 |
| 20260507163044 | 12 | 29 | 3.2 | 8.0 | 0.13 | 0.13 | 0.13 | 77 | 1014.8 |
| 20260507161543 | 13 | 28 | 1.6 | 4.8 | 0.05 | 0.05 | 0.05 | 77 | 1014.9 |
| 20260507160043 | 13 | 30 | 1.6 | 6.4 | 0.00 | 0.00 | 0.00 | 75 | 1014.8 |
| 20260507154553 | 13 | 30 | 6.4 | 9.7 | 0.00 | 0.00 | 0.00 | 74 | 1014.8 |
| 20260507153058 | 13 | 29 | 3.2 | 8.0 | 0.00 | 0.00 | 0.00 | 75 | 1014.8 |
| 20260507151550 | 13 | 29 | 0.0 | 8.0 | 0.00 | 0.00 | 0.00 | 75 | 1014.9 |
| 20260507150050 | 13 | 230 | 1.6 | 6.4 | 0.00 | 0.00 | 0.00 | 75 | 1014.9 |
| 20260507144601 | 13 | 228 | 0.0 | 6.4 | 0.00 | 0.00 | 0.00 | 73 | 1015.0 |
| 20260507143105 | 13 | 228 | 1.6 | 6.4 | 0.00 | 0.00 | 0.00 | 70 | 1015.1 |
| 20260507141559 | 13 | 228 | 1.6 | 6.4 | 0.00 | 0.00 | 0.00 | 67 | 1015.2 |
| 20260507140110 | 14 | 228 | 0.0 | 0.0 | 0.00 | 0.00 | 0.00 | 65 | 1015.2 |
| 20260507134541 | 14 | 228 | 0.0 | 1.6 | 0.00 | 0.00 | 0.00 | 64 | 1015.2 |
| 20260507133041 | 15 | 228 | 0.0 | 4.8 | 0.00 | 0.00 | 0.00 | 60 | 1015.2 |
| 20260507131545 | 15 | 228 | 1.6 | 12.9 | 0.00 | 0.00 | 0.00 | 59 | 1015.2 |
| 20260507130039 | 15 | 232 | 1.6 | 6.4 | 0.00 | 0.00 | 0.00 | 59 | 1015.3 |
| 20260507124536 | 14 | 232 | 3.2 | 11.3 | 0.00 | 0.00 | 0.00 | 60 | 1015.3 |
| 20260507123035 | 14 | 234 | 1.6 | 14.5 | 0.00 | 0.00 | 0.00 | 59 | 1015.3 |
| 20260507121535 | 14 | 240 | 0.0 | 3.2 | 0.00 | 0.00 | 0.00 | 59 | 1015.3 |
| 20260507120034 | 15 | 242 | 0.0 | 4.8 | 0.00 | 0.00 | 0.00 | 58 | 1015.4 |
| 20260507114553 | 15 | 243 | 0.0 | 8.0 | 0.00 | 0.00 | 0.00 | 58 | 1015.5 |
| 20260507113051 | 15 | 243 | 0.0 | 8.0 | 0.00 | 0.00 | 0.00 | 58 | 1015.5 |
| 20260507111550 | 15 | 242 | 0.0 | 3.2 | 0.00 | 0.00 | 0.00 | 60 | 1015.4 |
| 20260507110052 | 15 | 246 | 0.0 | 1.6 | 0.00 | 0.00 | 0.00 | 63 | 1015.6 |
| 20260507104555 | 15 | 246 | 0.0 | 4.8 | 0.00 | 0.00 | 0.00 | 65 | 1015.6 |
| 20260507103050 | 15 | 244 | 0.0 | 4.8 | 0.00 | 0.00 | 0.00 | 67 | 1015.7 |
| 20260507101601 | 14 | 243 | 1.6 | 11.3 | 0.00 | 0.00 | 0.00 | 68 | 1015.7 |
| 20260507100044 | 13 | 31 | 0.0 | 4.8 | 0.00 | 0.00 | 0.00 | 70 | 1015.8 |
| 20260507094556 | 13 | 31 | 0.0 | 4.8 | 0.00 | 0.00 | 0.00 | 71 | 1015.8 |
| 20260507093042 | 12 | 31 | 0.0 | 6.4 | 0.00 | 0.00 | 0.00 | 71 | 1015.8 |
| 20260507091554 | 12 | 31 | 0.0 | 3.2 | 0.00 | 0.00 | 0.00 | 72 | 1015.8 |
| 20260507090043 | 12 | 30 | 0.0 | 3.2 | 0.00 | 0.00 | 0.00 | 74 | 1016.0 |
| 20260507084501 | 11 | 30 | 0.0 | 4.8 | 0.00 | 0.00 | 0.00 | 75 | 1016.0 |
| 20260507083105 | 11 | 30 | 0.0 | 1.6 | 0.00 | 0.00 | 0.00 | 76 | 1016.2 |
| 20260507081558 | 10 | 30 | 0.0 | 3.2 | 0.00 | 0.00 | 0.00 | 78 | 1016.1 |
| 20260507080051 | 10 | 30 | 0.0 | 3.2 | 0.00 | 0.00 | 0.00 | 79 | 1016.1 |
| 20260507074555 | 9 | 30 | 0.0 | 4.8 | 0.00 | 0.00 | 0.00 | 80 | 1016.0 |
| 20260507073101 | 8 | 30 | 0.0 | 1.6 | 0.00 | 0.00 | 0.00 | 81 | 1016.1 |
| 20260507071547 | 8 | 30 | 0.0 | 3.2 | 0.00 | 0.00 | 0.00 | 82 | 1016.0 |
| 20260507070114 | 8 | 30 | 0.0 | 1.6 | 0.00 | 0.00 | 0.00 | 82 | 1015.8 |
| 20260507064547 | 8 | 30 | 0.0 | 3.2 | 0.00 | 0.00 | 0.00 | 83 | 1015.7 |
| 20260507063040 | 8 | 30 | 0.0 | 3.2 | 0.00 | 0.00 | 0.00 | 83 | 1015.8 |
| 20260507061539 | 8 | 30 | 0.0 | 1.6 | 0.00 | 0.00 | 0.00 | 83 | 1015.8 |
| 20260507060037 | 7 | 30 | 0.0 | 1.6 | 0.00 | 0.00 | 0.00 | 83 | 1015.7 |
| 20260507054604 | 7 | 30 | 0.0 | 3.2 | 0.00 | 0.00 | 0.00 | 83 | 1015.5 |
| 20260507053053 | 7 | 30 | 0.0 | 1.6 | 0.00 | 0.00 | 0.00 | 83 | 1015.5 |
| 20260507051548 | 7 | 30 | 0.0 | 3.2 | 0.00 | 0.00 | 0.00 | 83 | 1015.5 |
| 20260507050046 | 7 | 30 | 0.0 | 3.2 | 0.00 | 0.00 | 0.00 | 83 | 1015.5 |
| 20260507044546 | 7 | 30 | 0.0 | 1.6 | 0.00 | 0.00 | 0.00 | 83 | 1015.4 |
| 20260507043041 | 7 | 30 | 0.0 | 3.2 | 0.00 | 0.00 | 0.00 | 82 | 1015.3 |
| 20260507041538 | 7 | 30 | 0.0 | 9.7 | 0.00 | 0.00 | 0.00 | 82 | 1015.3 |
| 20260507040036 | 7 | 30 | 0.0 | 3.2 | 0.00 | 0.00 | 0.00 | 81 | 1015.4 |
| 20260507034545 | 7 | 30 | 0.0 | 3.2 | 0.00 | 0.00 | 0.00 | 81 | 1015.4 |
| 20260507033037 | 8 | 30 | 0.0 | 8.0 | 0.00 | 0.00 | 0.00 | 80 | 1015.3 |
| 20260507031534 | 8 | 30 | 0.0 | 3.2 | 0.00 | 0.00 | 0.00 | 80 | 1015.4 |